Time,TemperatureF,DewpointF,PressureIn,WindDirection,WindDirectionDegrees,WindSpeedMPH,WindSpeedGustMPH,Humidity,HourlyPrecipIn,Conditions,Clouds,dailyrainin,SoftwareType,DateUTC
2013-01-24 00:01:00,32.1,31.0,30.34,WSW,250,1.0,1.0,94,0.00,,,0.00,weatherlink.com 1.10,2013-01-24 07:01:00,
2013-01-24 00:16:00,31.8,31.0,30.35,SSE,167,0.0,1.0,95,0.00,,,0.00,weatherlink.com 1.10,2013-01-24 07:16:00,
2013-01-24 00:32:00,31.8,31.0,30.34,ESE,108,2.0,3.0,95,0.00,,,0.00,weatherlink.com 1.10,2013-01-24 07:32:00,
2013-01-24 00:47:00,31.7,31.0,30.34,ESE,106,0.0,2.0,95,0.00,,,0.00,weatherlink.com 1.10,2013-01-24 07:47:00,
2013-01-24 01:02:00,31.7,31.0,30.33,ENE,77,2.0,4.0,96,0.00,,,0.00,weatherlink.com 1.10,2013-01-24 08:02:00,
2013-01-24 01:17:00,31.7,31.0,30.32,ESE,107,2.0,4.0,96,0.00,,,0.00,weatherlink.com 1.10,2013-01-24 08:17:00,
2013-01-24 01:32:00,31.7,31.0,30.32,East,96,1.0,3.0,96,0.00,,,0.00,weatherlink.com 1.10,2013-01-24 08:32:00,
2013-01-24 01:47:00,31.6,31.0,30.31,East,100,1.0,3.0,96,0.00,,,0.00,weatherlink.com 1.10,2013-01-24 08:47:00,
2013-01-24 02:02:00,31.6,31.0,30.31,East,83,2.0,3.0,96,0.00,,,0.00,weatherlink.com 1.10,2013-01-24 09:02:00,
2013-01-24 02:17:00,31.6,31.0,30.30,East,79,1.0,4.0,96,0.00,,,0.00,weatherlink.com 1.10,2013-01-24 09:17:00,
2013-01-24 02:32:00,31.6,31.0,30.31,SE,124,1.0,3.0,96,0.00,,,0.00,weatherlink.com 1.10,2013-01-24 09:32:00,
2013-01-24 02:47:00,31.6,31.0,30.31,ESE,105,2.0,2.0,96,0.00,,,0.00,weatherlink.com 1.10,2013-01-24 09:47:00,
2013-01-24 03:02:00,31.6,31.0,30.30,ESE,118,1.0,2.0,96,0.00,,,0.00,weatherlink.com 1.10,2013-01-24 10:02:00,
2013-01-24 03:17:00,31.7,31.0,30.30,ESE,105,1.0,1.0,97,0.00,,,0.00,weatherlink.com 1.10,2013-01-24 10:17:00,
2013-01-24 03:32:00,31.7,31.0,30.29,SE,134,0.0,1.0,97,0.00,,,0.00,weatherlink.com 1.10,2013-01-24 10:32:00,
2013-01-24 03:47:00,31.6,31.0,30.29,South,170,0.0,1.0,97,0.00,,,0.00,weatherlink.com 1.10,2013-01-24 10:47:00,
2013-01-24 04:02:00,31.5,31.0,30.30,SSE,153,0.0,1.0,97,0.00,,,0.00,weatherlink.com 1.10,2013-01-24 11:02:00,
2013-01-24 04:17:00,31.4,31.0,30.30,SW,223,0.0,1.0,97,0.00,,,0.00,weatherlink.com 1.10,2013-01-24 11:17:00,
2013-01-24 04:32:00,31.4,31.0,30.30,SW,226,0.0,1.0,97,0.00,,,0.00,weatherlink.com 1.10,2013-01-24 11:32:00,
2013-01-24 04:47:00,31.4,31.0,30.29,SSE,165,0.0,1.0,97,0.00,,,0.00,weatherlink.com 1.10,2013-01-24 11:47:00,
2013-01-24 05:02:00,31.6,31.0,30.29,ESE,108,0.0,0.0,97,0.00,,,0.00,weatherlink.com 1.10,2013-01-24 12:02:00,
2013-01-24 05:17:00,31.6,31.0,30.29,East,91,0.0,0.0,97,0.00,,,0.00,weatherlink.com 1.10,2013-01-24 12:17:00,
2013-01-24 05:32:00,31.6,31.0,30.29,ESE,113,0.0,0.0,97,0.00,,,0.00,weatherlink.com 1.10,2013-01-24 12:32:00,
2013-01-24 05:47:00,31.5,31.0,30.29,WSW,253,0.0,0.0,97,0.00,,,0.00,weatherlink.com 1.10,2013-01-24 12:47:00,
2013-01-24 06:02:00,31.4,31.0,30.29,East,84,0.0,0.0,97,0.00,,,0.00,weatherlink.com 1.10,2013-01-24 13:02:00,
2013-01-24 06:17:00,31.5,31.0,30.29,ESE,106,0.0,0.0,97,0.00,,,0.00,weatherlink.com 1.10,2013-01-24 13:17:00,
2013-01-24 06:32:00,31.5,31.0,30.29,ENE,71,0.0,1.0,97,0.00,,,0.00,weatherlink.com 1.10,2013-01-24 13:32:00,
2013-01-24 06:47:00,31.5,31.0,30.30,ESE,118,0.0,0.0,97,0.00,,,0.00,weatherlink.com 1.10,2013-01-24 13:47:00,
2013-01-24 07:02:00,31.5,31.0,30.30,ENE,67,0.0,0.0,97,0.00,,,0.00,weatherlink.com 1.10,2013-01-24 14:02:00,
2013-01-24 07:17:00,31.5,31.0,30.30,ESE,110,0.0,1.0,97,0.00,,,0.00,weatherlink.com 1.10,2013-01-24 14:17:00,
2013-01-24 07:32:00,31.5,31.0,30.31,East,89,0.0,0.0,97,0.00,,,0.00,weatherlink.com 1.10,2013-01-24 14:32:00,
2013-01-24 07:47:00,31.5,31.0,30.31,East,101,0.0,0.0,97,0.00,,,0.00,weatherlink.com 1.10,2013-01-24 14:47:00,
2013-01-24 08:02:00,31.5,31.0,30.31,East,94,0.0,0.0,97,0.00,,,0.00,weatherlink.com 1.10,2013-01-24 15:02:00,
2013-01-24 08:17:00,31.5,31.0,30.31,East,83,0.0,1.0,97,0.00,,,0.00,weatherlink.com 1.10,2013-01-24 15:17:00,
2013-01-24 08:32:00,31.5,31.0,30.30,ENE,68,0.0,1.0,97,0.00,,,0.00,weatherlink.com 1.10,2013-01-24 15:32:00,
2013-01-24 08:47:00,31.5,31.0,30.30,ENE,64,1.0,1.0,97,0.00,,,0.00,weatherlink.com 1.10,2013-01-24 15:47:00,
2013-01-24 09:02:00,31.6,31.0,30.29,East,87,2.0,3.0,97,0.00,,,0.00,weatherlink.com 1.10,2013-01-24 16:02:00,
2013-01-24 09:17:00,31.4,31.0,30.28,East,100,1.0,2.0,97,0.00,,,0.00,weatherlink.com 1.10,2013-01-24 16:17:00,
2013-01-24 09:32:00,31.8,31.0,30.28,SE,128,0.0,2.0,97,0.00,,,0.00,weatherlink.com 1.10,2013-01-24 16:32:00,
2013-01-24 09:47:00,32.4,31.0,30.28,ESE,110,0.0,0.0,96,0.00,,,0.00,weatherlink.com 1.10,2013-01-24 16:47:00,
2013-01-24 10:02:00,32.7,32.0,30.29,SW,217,0.0,0.0,96,0.00,,,0.00,weatherlink.com 1.10,2013-01-24 17:02:00,
2013-01-24 10:20:00,33.1,32.0,30.29,SW,236,0.0,0.0,95,0.00,,,0.00,weatherlink.com 1.10,2013-01-24 17:20:00,
2013-01-24 10:32:00,33.7,32.0,30.30,WSW,245,0.0,0.0,94,0.00,,,0.00,weatherlink.com 1.10,2013-01-24 17:32:00,
2013-01-24 10:48:00,34.2,32.0,30.30,SW,236,0.0,1.0,93,0.00,,,0.00,weatherlink.com 1.10,2013-01-24 17:48:00,
2013-01-24 11:03:00,35.1,33.0,30.30,SW,229,0.0,0.0,92,0.00,,,0.00,weatherlink.com 1.10,2013-01-24 18:03:00,
2013-01-24 11:18:00,36.0,34.0,30.30,SW,231,0.0,1.0,91,0.00,,,0.00,weatherlink.com 1.10,2013-01-24 18:18:00,
2013-01-24 11:33:00,35.5,33.0,30.30,East,94,3.0,5.0,90,0.00,,,0.00,weatherlink.com 1.10,2013-01-24 18:33:00,
2013-01-24 11:48:00,35.3,33.0,30.29,SE,127,3.0,6.0,91,0.00,,,0.00,weatherlink.com 1.10,2013-01-24 18:48:00,
2013-01-24 12:03:00,35.6,33.0,30.28,ESE,119,7.0,8.0,89,0.00,,,0.00,weatherlink.com 1.10,2013-01-24 19:03:00,
2013-01-24 12:18:00,36.5,33.0,30.28,ENE,78,4.0,5.0,87,0.00,,,0.00,weatherlink.com 1.10,2013-01-24 19:18:00,
2013-01-24 12:33:00,37.0,34.0,30.28,East,90,1.0,5.0,88,0.00,,,0.00,weatherlink.com 1.10,2013-01-24 19:33:00,
2013-01-24 12:48:00,37.2,33.0,30.28,East,90,5.0,5.0,84,0.00,,,0.00,weatherlink.com 1.10,2013-01-24 19:48:00,
2013-01-24 13:03:00,35.7,32.0,30.27,East,89,2.0,5.0,87,0.00,,,0.00,weatherlink.com 1.10,2013-01-24 20:03:00,
2013-01-24 13:18:00,35.3,32.0,30.27,East,94,3.0,6.0,88,0.00,,,0.00,weatherlink.com 1.10,2013-01-24 20:18:00,
2013-01-24 13:33:00,35.7,33.0,30.25,East,96,3.0,7.0,89,0.00,,,0.00,weatherlink.com 1.10,2013-01-24 20:33:00,
2013-01-24 13:48:00,35.7,33.0,30.25,ESE,112,3.0,5.0,88,0.00,,,0.00,weatherlink.com 1.10,2013-01-24 20:48:00,
2013-01-24 14:03:00,36.5,33.0,30.25,East,99,3.0,5.0,86,0.00,,,0.00,weatherlink.com 1.10,2013-01-24 21:03:00,
2013-01-24 14:18:00,37.8,34.0,30.24,SW,228,0.0,1.0,85,0.00,,,0.00,weatherlink.com 1.10,2013-01-24 21:18:00,
2013-01-24 14:33:00,38.2,34.0,30.23,WSW,253,0.0,1.0,83,0.00,,,0.00,weatherlink.com 1.10,2013-01-24 21:33:00,
2013-01-24 14:48:00,38.2,34.0,30.23,SW,232,0.0,2.0,84,0.00,,,0.00,weatherlink.com 1.10,2013-01-24 21:48:00,
2013-01-24 15:03:00,37.9,34.0,30.23,WSW,237,0.0,3.0,84,0.00,,,0.00,weatherlink.com 1.10,2013-01-24 22:03:00,
2013-01-24 15:18:00,37.1,33.0,30.23,East,92,1.0,4.0,85,0.00,,,0.00,weatherlink.com 1.10,2013-01-24 22:18:00,
2013-01-24 15:33:00,37.8,34.0,30.23,East,99,0.0,1.0,85,0.00,,,0.00,weatherlink.com 1.10,2013-01-24 22:33:00,
2013-01-24 15:48:00,37.6,34.0,30.23,SW,223,0.0,0.0,86,0.00,,,0.00,weatherlink.com 1.10,2013-01-24 22:48:00,
2013-01-24 16:03:00,36.5,33.0,30.23,ESE,111,0.0,2.0,87,0.00,,,0.00,weatherlink.com 1.10,2013-01-24 23:03:00,
2013-01-24 16:18:00,36.2,33.0,30.23,ESE,102,0.0,1.0,87,0.00,,,0.00,weatherlink.com 1.10,2013-01-24 23:18:00,
2013-01-24 16:33:00,35.5,32.0,30.23,East,94,2.0,3.0,88,0.00,,,0.00,weatherlink.com 1.10,2013-01-24 23:33:00,
2013-01-24 16:48:00,35.1,32.0,30.23,ESE,107,4.0,5.0,88,0.00,,,0.00,weatherlink.com 1.10,2013-01-24 23:48:00,
2013-01-24 17:03:00,34.9,32.0,30.24,East,99,1.0,3.0,89,0.00,,,0.00,weatherlink.com 1.10,2013-01-25 00:03:00,
2013-01-24 17:18:00,34.7,32.0,30.24,East,99,0.0,3.0,89,0.00,,,0.00,weatherlink.com 1.10,2013-01-25 00:18:00,
2013-01-24 17:33:00,34.3,32.0,30.25,ESE,105,2.0,3.0,90,0.00,,,0.00,weatherlink.com 1.10,2013-01-25 00:33:00,
2013-01-24 17:48:00,33.9,32.0,30.24,ESE,110,1.0,4.0,91,0.00,,,0.00,weatherlink.com 1.10,2013-01-25 00:48:00,
2013-01-24 18:03:00,33.6,31.0,30.25,East,96,3.0,6.0,91,0.00,,,0.00,weatherlink.com 1.10,2013-01-25 01:03:00,
2013-01-24 18:18:00,33.5,31.0,30.25,ESE,110,2.0,4.0,91,0.00,,,0.00,weatherlink.com 1.10,2013-01-25 01:18:00,
2013-01-24 18:33:00,33.5,31.0,30.25,East,101,1.0,3.0,91,0.00,,,0.00,weatherlink.com 1.10,2013-01-25 01:33:00,
2013-01-24 18:48:00,33.7,31.0,30.25,ESE,110,3.0,3.0,91,0.00,,,0.00,weatherlink.com 1.10,2013-01-25 01:48:00,
2013-01-24 19:04:00,33.7,31.0,30.25,East,101,3.0,4.0,91,0.00,,,0.00,weatherlink.com 1.10,2013-01-25 02:04:00,
2013-01-24 19:19:00,32.8,31.0,30.25,ENE,77,3.0,5.0,93,0.00,,,0.00,weatherlink.com 1.10,2013-01-25 02:19:00,
2013-01-24 19:35:00,32.8,31.0,30.25,East,82,2.0,3.0,93,0.00,,,0.00,weatherlink.com 1.10,2013-01-25 02:35:00,
2013-01-24 19:49:00,32.7,31.0,30.25,East,87,0.0,2.0,94,0.00,,,0.00,weatherlink.com 1.10,2013-01-25 02:49:00,
2013-01-24 20:04:00,32.7,31.0,30.25,WSW,239,1.0,3.0,94,0.00,,,0.00,weatherlink.com 1.10,2013-01-25 03:04:00,
2013-01-24 20:19:00,32.7,31.0,30.25,ESE,105,3.0,5.0,94,0.01,,,0.01,weatherlink.com 1.10,2013-01-25 03:19:00,
2013-01-24 20:34:00,32.7,31.0,30.25,SW,236,1.0,1.0,94,0.01,,,0.01,weatherlink.com 1.10,2013-01-25 03:34:00,
2013-01-24 20:49:00,32.6,31.0,30.26,ESE,116,3.0,4.0,94,0.01,,,0.01,weatherlink.com 1.10,2013-01-25 03:49:00,
2013-01-24 21:04:00,32.7,31.0,30.26,East,99,0.0,2.0,94,0.01,,,0.01,weatherlink.com 1.10,2013-01-25 04:04:00,
2013-01-24 21:19:00,32.3,31.0,30.26,East,99,0.0,1.0,94,0.00,,,0.01,weatherlink.com 1.10,2013-01-25 04:19:00,
2013-01-24 21:34:00,32.2,31.0,30.26,SW,230,0.0,0.0,95,0.00,,,0.01,weatherlink.com 1.10,2013-01-25 04:34:00,
2013-01-24 21:49:00,32.1,31.0,30.27,SW,229,0.0,0.0,95,0.00,,,0.01,weatherlink.com 1.10,2013-01-25 04:49:00,
2013-01-24 22:04:00,32.1,31.0,30.27,SW,229,0.0,0.0,95,0.00,,,0.01,weatherlink.com 1.10,2013-01-25 05:04:00,
2013-01-24 22:19:00,31.9,31.0,30.27,SW,229,0.0,0.0,95,0.00,,,0.01,weatherlink.com 1.10,2013-01-25 05:19:00,
2013-01-24 22:34:00,31.9,31.0,30.27,SE,132,0.0,0.0,96,0.00,,,0.01,weatherlink.com 1.10,2013-01-25 05:34:00,
2013-01-24 22:49:00,31.9,31.0,30.27,SE,132,0.0,0.0,96,0.00,,,0.01,weatherlink.com 1.10,2013-01-25 05:49:00,
2013-01-24 23:04:00,31.9,31.0,30.26,East,94,0.0,1.0,96,0.00,,,0.01,weatherlink.com 1.10,2013-01-25 06:04:00,
2013-01-24 23:19:00,31.9,31.0,30.27,WSW,240,0.0,1.0,96,0.00,,,0.01,weatherlink.com 1.10,2013-01-25 06:19:00,
2013-01-24 23:34:00,31.7,31.0,30.28,WSW,240,0.0,0.0,96,0.00,,,0.01,weatherlink.com 1.10,2013-01-25 06:34:00,
2013-01-24 23:49:00,31.7,31.0,30.27,ENE,64,0.0,2.0,96,0.00,,,0.01,weatherlink.com 1.10,2013-01-25 06:49:00,